GW7250 Weather Reports


Display with metric or nautical units.
time (UTC)temp
F
wind
direction
speed
MPH
gust
MPH
rain 1hr
in
rain 24hr
in
rain mn
in
humidity
%
barometer
mb
20260503224011 63 271 5.0 9.0 0.00 0.00 0.00 35 1014.8
20260503223509 63 257 4.0 7.0 0.00 0.00 0.00 35 1014.9
20260503223004 64 284 6.0 8.0 0.00 0.00 0.00 35 1014.9
20260503222502 64 301 3.0 4.0 0.00 0.00 0.00 34 1015.0
20260503222000 65 222 4.0 10.0 0.00 0.00 0.00 32 1015.3
20260503221458 64 233 2.0 4.0 0.00 0.00 0.00 34 1015.4
20260503220955 62 233 4.0 9.0 0.00 0.00 0.00 35 1015.3
20260503220452 64 248 11.0 14.0 0.00 0.00 0.00 31 1015.5
20260503215948 64 287 7.0 8.0 0.00 0.00 0.00 32 1015.4
20260503215445 64 275 3.0 8.0 0.00 0.00 0.00 32 1015.5
20260503214943 64 297 7.0 14.0 0.00 0.00 0.00 32 1015.9
20260503214441 64 241 5.0 9.0 0.00 0.00 0.00 29 1015.5
20260503213937 64 273 3.0 9.0 0.00 0.00 0.00 31 1015.6
20260503213436 65 277 7.0 9.0 0.00 0.00 0.00 33 1015.4
20260503212932 64 199 2.0 8.0 0.00 0.00 0.00 37 1015.1
20260503212429 65 259 4.0 8.0 0.00 0.00 0.00 31 1015.7
20260503211927 64 244 4.0 6.0 0.00 0.00 0.00 33 1015.7
20260503211424 64 284 6.0 9.0 0.00 0.00 0.00 32 1015.8
20260503210919 64 196 4.0 6.0 0.00 0.00 0.00 32 1015.9
20260503210416 64 256 5.0 7.0 0.00 0.00 0.00 34 1015.9
20260503205916 64 250 4.0 8.0 0.00 0.00 0.00 32 1016.0
20260503205414 64 172 3.0 7.0 0.00 0.00 0.00 32 1015.9
20260503204910 63 292 4.0 9.0 0.00 0.00 0.00 32 1015.9
20260503204407 63 249 7.0 11.0 0.00 0.00 0.00 30 1016.2
20260503203904 64 235 8.0 10.0 0.00 0.00 0.00 34 1016.1
20260503203402 64 182 5.0 14.0 0.00 0.00 0.00 31 1016.3
20260503202858 64 283 2.0 7.0 0.00 0.00 0.00 36 1016.3
20260503202356 63 278 4.0 7.0 0.00 0.00 0.00 34 1016.5
20260503201855 63 250 4.0 6.0 0.00 0.00 0.00 32 1016.8
20260503201351 62 268 8.0 11.0 0.00 0.00 0.00 34 1016.9
20260503200849 64 304 7.0 9.0 0.00 0.00 0.00 35 1016.9
20260503200344 64 205 4.0 7.0 0.00 0.00 0.00 30 1017.2
20260503195842 64 242 1.0 3.0 0.00 0.00 0.00 38 1017.3
20260503195338 63 273 8.0 11.0 0.00 0.00 0.00 32 1017.2
20260503194836 62 311 4.0 8.0 0.00 0.00 0.00 36 1017.2
20260503194331 62 330 5.0 10.0 0.00 0.00 0.00 34 1017.4
20260503193828 62 259 8.0 11.0 0.00 0.00 0.00 30 1017.7
20260503193324 62 283 7.0 8.0 0.00 0.00 0.00 34 1017.9
20260503192820 62 203 7.0 8.0 0.00 0.00 0.00 32 1017.9
20260503192315 63 276 4.0 10.0 0.00 0.00 0.00 32 1017.8
20260503191812 62 202 2.0 6.0 0.00 0.00 0.00 34 1017.8
20260503191309 62 280 10.0 14.0 0.00 0.00 0.00 31 1018.1
20260503190806 62 317 2.0 8.0 0.00 0.00 0.00 35 1018.1
20260503190303 61 243 6.0 11.0 0.00 0.00 0.00 31 1018.1
20260503185800 61 282 6.0 9.0 0.00 0.00 0.00 31 1018.2
20260503185255 62 243 5.0 9.0 0.00 0.00 0.00 31 1018.2
20260503184755 62 273 5.0 11.0 0.00 0.00 0.00 29 1018.4
20260503184252 62 287 4.0 9.0 0.00 0.00 0.00 35 1018.3
20260503183748 62 256 8.0 9.0 0.00 0.00 0.00 31 1018.5
20260503183246 61 258 4.0 10.0 0.00 0.00 0.00 35 1018.4
20260503182743 61 134 7.0 9.0 0.00 0.00 0.00 32 1018.6
20260503182242 60 277 4.0 6.0 0.00 0.00 0.00 35 1018.5
20260503181738 61 304 11.0 14.0 0.00 0.00 0.00 31 1018.5
20260503181236 61 217 4.0 6.0 0.00 0.00 0.00 31 1018.8
20260503180732 61 254 2.0 7.0 0.00 0.00 0.00 35 1018.7
20260503180230 61 241 4.0 6.0 0.00 0.00 0.00 30 1018.6
20260503175726 61 213 3.0 7.0 0.00 0.00 0.00 34 1018.8
20260503175225 60 272 4.0 7.0 0.00 0.00 0.00 32 1018.8
20260503174720 60 296 6.0 13.0 0.00 0.00 0.00 35 1019.2
20260503174218 60 310 4.0 4.0 0.00 0.00 0.00 33 1019.1
20260503173713 60 256 2.0 3.0 0.00 0.00 0.00 32 1019.2
20260503173209 60 191 5.0 7.0 0.00 0.00 0.00 31 1019.3
20260503172707 60 262 7.0 10.0 0.00 0.00 0.00 31 1019.5
20260503172204 60 240 4.0 4.0 0.00 0.00 0.00 34 1019.5
20260503171700 59 304 2.0 4.0 0.00 0.00 0.00 34 1019.2
20260503171157 59 263 4.0 7.0 0.00 0.00 0.00 38 1019.8
20260503170654 59 267 4.0 10.0 0.00 0.00 0.00 36 1019.9
20260503170151 60 198 1.0 3.0 0.00 0.00 0.00 32 1019.9
20260503160113 58 199 7.0 8.0 0.00 0.00 0.00 33 1020.7
20260503150542 57 217 1.0 3.0 0.00 0.00 0.00 35 1021.0
20260503130932 47 279 3.0 3.0 0.00 0.00 0.00 64 1020.7
20260503130430 47 266 2.0 3.0 0.00 0.00 0.00 64 1020.8
20260503110332 29 345 0.0 0.0 0.00 0.00 0.00 97 1020.4
20260503100257 28 345 0.0 0.0 0.00 0.00 0.00 97 1019.9
20260503090224 29 345 0.0 0.0 0.00 0.00 0.00 97 1019.5
20260503081156 30 345 0.0 0.0 0.00 0.00 0.00 96 1019.2
20260503080652 30 345 0.0 0.0 0.00 0.00 0.00 96 1019.3
20260503080149 30 345 0.0 0.0 0.00 0.00 0.00 96 1019.5
20260503072626 31 345 0.0 0.0 0.00 0.00 0.00 96 1019.1
20260503072123 31 345 0.0 0.0 0.00 0.00 0.00 96 1019.0
20260503071619 31 345 0.0 0.0 0.00 0.00 0.00 96 1019.1
20260503071116 31 345 0.0 0.0 0.00 0.00 0.00 96 1019.2
20260503070613 31 345 0.0 0.0 0.00 0.00 0.00 96 1019.3
20260503070111 31 345 0.0 0.0 0.00 0.00 0.00 96 1019.1
20260503055032 35 345 0.0 0.0 0.00 0.00 0.00 94 1019.3
20260503054528 35 345 0.0 0.0 0.00 0.00 0.00 94 1019.1
20260503054025 36 345 0.0 0.0 0.00 0.00 0.00 94 1019.3
20260503053523 36 345 0.0 0.0 0.00 0.00 0.00 94 1019.3
20260503053020 36 345 0.0 0.0 0.00 0.00 0.00 94 1019.2
20260503052517 35 345 0.0 0.0 0.00 0.00 0.00 94 1019.3
20260503052013 36 345 0.0 0.0 0.00 0.00 0.00 94 1019.1
20260503051509 36 345 0.0 0.0 0.00 0.00 0.00 94 1019.2
20260503051007 36 345 0.0 0.0 0.00 0.00 0.00 94 1019.3
20260503050502 36 345 0.0 0.0 0.00 0.00 0.00 94 1019.3
20260503050000 36 345 0.0 0.0 0.00 0.00 0.00 94 1019.5
20260503045457 36 345 0.0 0.0 0.00 0.00 0.00 93 1019.2
20260503044954 36 345 0.0 0.0 0.00 0.00 0.00 93 1019.2
20260503044451 37 345 0.0 0.0 0.00 0.00 0.00 93 1019.3
20260503043948 37 345 0.0 0.0 0.00 0.00 0.00 94 1019.1
20260503043444 37 345 0.0 0.0 0.00 0.00 0.00 94 1019.2
20260503042941 36 345 0.0 0.0 0.00 0.00 0.00 93 1019.2
20260503042438 37 345 0.0 0.0 0.00 0.00 0.00 93 1019.1
20260503041935 37 345 0.0 0.0 0.00 0.00 0.00 93 1019.1
20260503041431 37 345 0.0 0.0 0.00 0.00 0.00 93 1019.1
20260503040928 37 345 0.0 0.0 0.00 0.00 0.00 93 1019.2
20260503040426 37 345 0.0 0.0 0.00 0.00 0.00 92 1019.0
20260503035923 37 345 0.0 0.0 0.00 0.00 0.00 92 1019.1
20260503035420 38 345 0.0 0.0 0.00 0.00 0.00 92 1018.9
20260503034917 38 345 0.0 0.0 0.00 0.00 0.00 92 1018.9
20260503034415 38 345 0.0 0.0 0.00 0.00 0.00 92 1019.1
20260503033912 38 345 0.0 0.0 0.00 0.00 0.00 91 1019.1
20260503033409 38 345 0.0 0.0 0.00 0.00 0.00 91 1019.2
20260503032907 39 345 0.0 0.0 0.00 0.00 0.00 90 1018.9
20260503032406 39 345 0.0 0.0 0.00 0.00 0.00 90 1018.7
20260503031903 39 345 0.0 0.0 0.00 0.00 0.00 89 1018.9
20260503031400 40 345 0.0 0.0 0.00 0.00 0.00 88 1018.8
20260503030856 40 344 0.0 0.0 0.00 0.00 0.00 87 1018.8
20260503030353 40 344 0.0 1.0 0.00 0.00 0.00 85 1018.8
20260503025849 40 344 0.0 0.0 0.00 0.00 0.00 86 1018.5
20260503025347 40 344 0.0 0.0 0.00 0.00 0.00 84 1018.7
20260503024844 40 344 0.0 0.0 0.00 0.00 0.00 89 1018.7
20260503024341 40 344 0.0 0.0 0.00 0.00 0.00 88 1018.7
20260503023837 41 344 0.0 0.0 0.00 0.00 0.00 87 1018.6
20260503023335 41 344 0.0 0.0 0.00 0.00 0.00 87 1018.5
20260503022831 42 344 0.0 0.0 0.00 0.00 0.00 86 1018.5
20260503022326 41 345 0.0 1.0 0.00 0.00 0.00 87 1018.5
20260503021823 41 344 0.0 0.0 0.00 0.00 0.00 88 1018.4
20260503021319 41 344 0.0 0.0 0.00 0.00 0.00 87 1018.3
20260503020817 41 344 0.0 0.0 0.00 0.00 0.00 86 1018.1
20260503020315 41 344 0.0 0.0 0.00 0.00 0.00 87 1018.2
20260503015810 42 344 0.0 0.0 0.00 0.00 0.00 86 1018.1
20260503015307 42 344 0.0 0.0 0.00 0.00 0.00 85 1018.0
20260503014803 42 344 0.0 0.0 0.00 0.00 0.00 85 1018.0
20260503014301 42 344 0.0 0.0 0.00 0.00 0.00 85 1018.0
20260503013758 42 344 0.0 0.0 0.00 0.00 0.00 84 1017.9
20260503013255 42 344 0.0 0.0 0.00 0.00 0.00 83 1017.8
20260503012753 43 344 0.0 0.0 0.00 0.00 0.00 82 1017.8
20260503012250 43 344 0.0 0.0 0.00 0.00 0.00 80 1017.6
20260503011747 44 344 0.0 0.0 0.00 0.00 0.00 77 1017.7
20260503011244 45 344 0.0 0.0 0.00 0.00 0.00 75 1017.6
20260503010740 46 344 0.0 0.0 0.00 0.00 0.00 71 1017.7
20260503010237 46 344 0.0 0.0 0.00 0.00 0.00 68 1017.6
20260503005734 46 344 0.0 0.0 0.00 0.00 0.00 68 1017.4
20260503005231 47 344 0.0 0.0 0.00 0.00 0.00 67 1017.5
20260503004727 47 344 0.0 0.0 0.00 0.00 0.00 68 1017.3
20260503004226 48 344 0.0 0.0 0.00 0.00 0.00 65 1017.4
20260503003723 48 344 0.0 0.0 0.00 0.00 0.00 62 1017.5
20260503003220 49 344 0.0 0.0 0.00 0.00 0.00 62 1017.2
20260503002716 49 344 0.0 0.0 0.00 0.00 0.00 61 1017.3
20260503002213 50 344 0.0 0.0 0.00 0.00 0.00 58 1017.1
20260503001709 50 344 0.0 0.0 0.00 0.00 0.00 56 1017.1
20260503001206 50 344 1.0 1.0 0.00 0.00 0.00 55 1017.1
20260503000704 50 344 1.0 1.0 0.00 0.00 0.00 54 1016.9
20260503000203 51 343 1.0 1.0 0.00 0.00 0.00 53 1016.9
20260502235658 51 344 2.0 2.0 0.00 0.00 0.00 52 1017.1
20260502235155 51 332 3.0 3.0 0.00 0.00 0.00 51 1016.9
20260502234651 52 337 2.0 3.0 0.00 0.00 0.00 51 1016.6
20260502234149 52 348 4.0 6.0 0.00 0.00 0.00 49 1016.9
20260502233645 52 350 3.0 3.0 0.00 0.00 0.00 50 1016.9
20260502233142 51 346 3.0 3.0 0.00 0.00 0.00 52 1016.9
20260502232637 52 7 2.0 3.0 0.00 0.00 0.00 53 1016.8
20260502232135 52 349 3.0 4.0 0.00 0.00 0.00 50 1016.8
20260502231631 52 348 2.0 4.0 0.00 0.00 0.00 50 1016.7
20260502231130 53 341 6.0 6.0 0.00 0.00 0.00 50 1016.8
20260502230628 53 0 5.0 6.0 0.00 0.00 0.00 48 1016.8
20260502230126 55 350 3.0 4.0 0.00 0.00 0.00 47 1016.6
20260502225621 56 357 2.0 2.0 0.00 0.00 0.00 44 1016.6
20260502225118 55 328 2.0 3.0 0.00 0.00 0.00 48 1016.6
20260502224614 54 343 3.0 3.0 0.00 0.00 0.00 48 1016.8
20260502224111 54 344 2.0 2.0 0.00 0.00 0.00 48 1016.7